Location: Marcé
(47.5801°N, 0.3280°W)
Time: 09:39:52
(UTC+01:00)

Tiros 1 despin weight - Pass Details

Date: 09 December 2021
Orbit: 592 x 641 km, 48.2° (Epoch: 25 January)

Event Time Altitude Azimuth Distance (km) Brightness Sun altitude
Rises 12:38:00 0° 235° (SW) 2,850 ? 19.5°
Reaches altitude 10° 12:40:21 10° 231° (SW) 1,941 ? 19.5°
Maximum altitude 12:44:40 52° 155° (SSE) 748 ? 19.5°
Drops below altitude 10° 12:48:57 10° 80° (E) 1,928 ? 19.5°
Sets 12:51:16 0° 75° (ENE) 2,828 ? 19.6°
